• en France
  • Liste des pays
  • À 7 jours
  • Température de l'eau
  • Carte satellitaire
  • Carte météo
  • Widgets météo
  • user-avatar
    Se connecter

    Météo par heure à Quibdó

    Ce jour, 13 Décembre, Mercredi

    Heure Température Précipitation Vent Pression Humidité
    00:00 +22°C° 0,8 mm 0 m/s 753 mmHg 95%
    01:00 +22°C° 0 mm 0 m/s 752 mmHg 94%
    02:00 +22°C° 0 mm 0 m/s 752 mmHg 95%
    03:00 +22°C° 0 mm 0 m/s 752 mmHg 95%
    04:00 +22°C° 0 mm 0 m/s 752 mmHg 95%
    05:00 +22°C° 0 mm 0 m/s 752 mmHg 94%
    06:00 +22°C° 0 mm 0 m/s 752 mmHg 93%
    07:00 +22°C° 0 mm 0 m/s 753 mmHg 92%
    08:00 +25°C° 0 mm 0 m/s 753 mmHg 84%
    09:00 +27°C° 0 mm 0 m/s 753 mmHg 76%
    10:00 +31°C° 0 mm 1 m/s 753 mmHg 68%
    11:00 +32°C° 0 mm 1 m/s 752 mmHg 63%
    12:00 +33°C° 0 mm 1 m/s 751 mmHg 57%
    13:00 +34°C° 0 mm 1 m/s 750 mmHg 52%
    14:00 +33°C° 0 mm 1 m/s 750 mmHg 55%
    15:00 +33°C° 0 mm 1 m/s 749 mmHg 57%
    16:00 +32°C° 0 mm 1 m/s 749 mmHg 60%
    17:00 +30°C° 0 mm 1 m/s 749 mmHg 69%
    18:00 +28°C° 0 mm 1 m/s 749 mmHg 78%
    19:00 +26°C° 0 mm 1 m/s 750 mmHg 87%
    20:00 +26°C° 0 mm 1 m/s 750 mmHg 89%
    21:00 +24°C° 0 mm 0 m/s 751 mmHg 90%
    22:00 +23°C° 0 mm 0 m/s 751 mmHg 91%
    23:00 +23°C° 0 mm 0 m/s 751 mmHg 92%

    Demain, 14 Décembre, Jeudi

    Heure Température Précipitation Vent Pression Humidité
    00:00 +23°C° 0 mm 0 m/s 751 mmHg 93%
    01:00 +23°C° 0 mm 0 m/s 751 mmHg 93%
    02:00 +23°C° 0 mm 0 m/s 751 mmHg 93%
    03:00 +23°C° 0 mm 0 m/s 750 mmHg 92%
    04:00 +23°C° 0 mm 0 m/s 750 mmHg 91%
    05:00 +23°C° 0 mm 0 m/s 750 mmHg 90%
    06:00 +23°C° 0 mm 0 m/s 751 mmHg 89%
    07:00 +23°C° 0 mm 0 m/s 751 mmHg 88%
    08:00 +25°C° 0 mm 0 m/s 751 mmHg 82%
    09:00 +29°C° 0 mm 1 m/s 751 mmHg 76%
    10:00 +31°C° 0 mm 1 m/s 751 mmHg 69%
    11:00 +32°C° 0,4 mm 1 m/s 750 mmHg 69%
    12:00 +32°C° 0,4 mm 1 m/s 750 mmHg 70%
    13:00 +32°C° 0,4 mm 1 m/s 749 mmHg 70%
    14:00 +32°C° 0,6 mm 1 m/s 748 mmHg 73%
    15:00 +31°C° 0,6 mm 1 m/s 748 mmHg 77%
    16:00 +30°C° 0,6 mm 1 m/s 747 mmHg 81%
    17:00 +29°C° 0,2 mm 1 m/s 748 mmHg 86%
    18:00 +27°C° 0,2 mm 1 m/s 749 mmHg 91%
    19:00 +26°C° 0,2 mm 1 m/s 750 mmHg 96%
    20:00 +26°C° 0,2 mm 1 m/s 750 mmHg 96%
    21:00 +24°C° 0,2 mm 0 m/s 751 mmHg 96%
    22:00 +23°C° 0,2 mm 0 m/s 751 mmHg 96%
    23:00 +23°C° 0,1 mm 0 m/s 751 mmHg 96%

    Après-demain, 15 Décembre, Vendredi

    Heure Température Précipitation Vent Pression Humidité
    00:00 +23°C° 0,1 mm 0 m/s 751 mmHg 96%
    01:00 +23°C° 0,1 mm 0 m/s 751 mmHg 95%
    02:00 +23°C° 0 mm 0 m/s 750 mmHg 95%
    03:00 +23°C° 0 mm 0 m/s 750 mmHg 95%
    04:00 +23°C° 0 mm 0 m/s 750 mmHg 94%
    05:00 +23°C° 0 mm 0 m/s 750 mmHg 93%
    06:00 +23°C° 0 mm 0 m/s 750 mmHg 92%
    07:00 +23°C° 0 mm 0 m/s 751 mmHg 91%
    08:00 +25°C° 0 mm 0 m/s 751 mmHg 84%
    09:00 +29°C° 0 mm 1 m/s 751 mmHg 78%
    10:00 +31°C° 0 mm 1 m/s 751 mmHg 72%
    11:00 +31°C° 0,1 mm 1 m/s 750 mmHg 69%
    12:00 +32°C° 0,1 mm 1 m/s 749 mmHg 67%
    13:00 +33°C° 0,1 mm 1 m/s 749 mmHg 65%
    14:00 +32°C° 0,7 mm 1 m/s 748 mmHg 71%
    15:00 +31°C° 0,7 mm 1 m/s 748 mmHg 78%
    16:00 +30°C° 0,7 mm 1 m/s 747 mmHg 84%
    17:00 +29°C° 0,7 mm 1 m/s 748 mmHg 88%
    18:00 +27°C° 0,7 mm 1 m/s 748 mmHg 92%
    19:00 +26°C° 0,7 mm 1 m/s 749 mmHg 96%
    20:00 +26°C° 0,5 mm 1 m/s 750 mmHg 96%
    21:00 +24°C° 0,5 mm 0 m/s 750 mmHg 97%
    22:00 +24°C° 0,5 mm 0 m/s 751 mmHg 97%
    23:00 +23°C° 0,2 mm 0 m/s 751 mmHg 97%

    16 Décembre, Samedi

    Heure Température Précipitation Vent Pression Humidité
    00:00 +23°C° 0,2 mm 0 m/s 751 mmHg 97%
    01:00 +23°C° 0,2 mm 0 m/s 750 mmHg 96%
    02:00 +23°C° 0,1 mm 0 m/s 750 mmHg 96%
    03:00 +23°C° 0,1 mm 0 m/s 750 mmHg 96%
    04:00 +23°C° 0,1 mm 0 m/s 750 mmHg 95%
    05:00 +23°C° 0 mm 0 m/s 750 mmHg 94%
    06:00 +23°C° 0 mm 0 m/s 751 mmHg 93%
    07:00 +23°C° 0 mm 0 m/s 751 mmHg 92%
    08:00 +25°C° 0,2 mm 0 m/s 751 mmHg 86%
    09:00 +27°C° 0,2 mm 0 m/s 751 mmHg 80%
    10:00 +31°C° 0,2 mm 1 m/s 751 mmHg 74%
    11:00 +31°C° 0,4 mm 1 m/s 750 mmHg 73%
    12:00 +32°C° 0,4 mm 1 m/s 750 mmHg 71%
    13:00 +32°C° 0,4 mm 1 m/s 749 mmHg 70%
    14:00 +31°C° 0,5 mm 1 m/s 748 mmHg 74%
    15:00 +31°C° 0,5 mm 1 m/s 748 mmHg 78%
    16:00 +30°C° 0,5 mm 1 m/s 747 mmHg 83%
    17:00 +29°C° 0,6 mm 1 m/s 748 mmHg 87%
    18:00 +27°C° 0,6 mm 1 m/s 748 mmHg 91%
    19:00 +24°C° 0,6 mm 0 m/s 749 mmHg 96%
    20:00 +24°C° 0,1 mm 0 m/s 749 mmHg 96%
    21:00 +24°C° 0,1 mm 0 m/s 750 mmHg 96%
    22:00 +24°C° 0,1 mm 0 m/s 750 mmHg 96%
    23:00 +23°C° 0,1 mm 0 m/s 750 mmHg 96%

    17 Décembre, Dimanche

    Heure Température Précipitation Vent Pression Humidité
    00:00 +23°C° 0,1 mm 0 m/s 750 mmHg 96%
    01:00 +23°C° 0,1 mm 0 m/s 750 mmHg 96%
    02:00 +23°C° 0 mm 0 m/s 749 mmHg 96%
    03:00 +23°C° 0 mm 0 m/s 749 mmHg 95%
    04:00 +23°C° 0 mm 0 m/s 749 mmHg 95%
    05:00 +23°C° 0 mm 0 m/s 749 mmHg 94%
    06:00 +23°C° 0 mm 0 m/s 750 mmHg 93%
    07:00 +24°C° 0 mm 0 m/s 750 mmHg 92%
    08:00 +27°C° 0 mm 1 m/s 750 mmHg 86%
    09:00 +29°C° 0 mm 1 m/s 750 mmHg 79%
    10:00 +31°C° 0 mm 1 m/s 750 mmHg 73%
    11:00 +31°C° 0,2 mm 1 m/s 750 mmHg 71%
    12:00 +32°C° 0,2 mm 1 m/s 749 mmHg 69%
    13:00 +33°C° 0,2 mm 1 m/s 748 mmHg 68%
    14:00 +32°C° 0,6 mm 1 m/s 747 mmHg 72%
    15:00 +31°C° 0,6 mm 2 m/s 747 mmHg 77%
    16:00 +30°C° 0,6 mm 2 m/s 746 mmHg 82%
    17:00 +29°C° 0,4 mm 1 m/s 747 mmHg 87%
    18:00 +27°C° 0,4 mm 1 m/s 748 mmHg 92%
    19:00 +26°C° 0,4 mm 1 m/s 748 mmHg 97%
    20:00 +26°C° 0,1 mm 1 m/s 749 mmHg 96%
    21:00 +26°C° 0,1 mm 1 m/s 749 mmHg 96%
    22:00 +26°C° 0,1 mm 1 m/s 750 mmHg 96%
    23:00 +25°C° 0 mm 1 m/s 750 mmHg 95%

    18 Décembre, Lundi

    Heure Température Précipitation Vent Pression Humidité
    00:00 +23°C° 0 mm 0 m/s 749 mmHg 95%
    01:00 +23°C° 0 mm 0 m/s 749 mmHg 94%
    02:00 +23°C° 0,1 mm 0 m/s 749 mmHg 94%
    03:00 +23°C° 0,1 mm 0 m/s 749 mmHg 93%
    04:00 +23°C° 0,1 mm 0 m/s 749 mmHg 93%
    05:00 +23°C° 0 mm 0 m/s 749 mmHg 92%
    06:00 +23°C° 0 mm 0 m/s 750 mmHg 91%
    07:00 +23°C° 0 mm 0 m/s 750 mmHg 90%
    08:00 +27°C° 0 mm 1 m/s 750 mmHg 85%
    09:00 +28°C° 0 mm 1 m/s 750 mmHg 80%
    10:00 +30°C° 0 mm 1 m/s 750 mmHg 76%
    11:00 +31°C° 0,1 mm 1 m/s 750 mmHg 72%
    12:00 +32°C° 0,1 mm 1 m/s 749 mmHg 69%
    13:00 +34°C° 0,1 mm 2 m/s 748 mmHg 65%
    14:00 +32°C° 0,3 mm 2 m/s 748 mmHg 70%
    15:00 +31°C° 0,3 mm 2 m/s 747 mmHg 74%
    16:00 +30°C° 0,3 mm 2 m/s 747 mmHg 79%
    17:00 +29°C° 0,4 mm 1 m/s 748 mmHg 84%
    18:00 +27°C° 0,4 mm 1 m/s 749 mmHg 90%
    19:00 +26°C° 0,4 mm 1 m/s 749 mmHg 96%
    20:00 +26°C° 0,2 mm 1 m/s 750 mmHg 96%
    21:00 +26°C° 0,2 mm 1 m/s 750 mmHg 96%
    22:00 +25°C° 0,2 mm 1 m/s 751 mmHg 96%
    23:00 +23°C° 0 mm 0 m/s 751 mmHg 95%
    Voir plus